[[{"header":{"parameterUnit":"m.s-1","parameterCategory":1,"la1":30.2991,"la2":30.254,"lo1":-89.0895,"lo2":-89.0444,"dy":0.0017,"dx":0.0017,"nx":28,"ny":28,"refTime":"2025-07-24T09:00:00:Z","depth":0,"parameterNumber":2,"parameterNumberName":"U-component_of_WINDS"},"data":[0,0,0,0,0,0,0,0,0,0,0,0,0,0,0,0,0,0,0,0,0,0,0,0,0,0,0,0,0,0,0,0,0,0,0,0,0,0,0,0,0,0,0,0,0,0,0,0,0,0,0,0,0,0,0,0,0,0,-0.6062,-0.6063,0,-0.6176,-0.6178,-0.6179,-0.6222,-0.6222,-0.6221,-0.6221,-0.6351,-0.6355,-0.6359,0,0,0,0,0,0,0,0,0,0,0,0,0,-0.5892,-0.5895,-0.6062,-0.6063,-0.6065,-0.6176,-0.6178,-0.6179,-0.6222,-0.6222,-0.6221,-0.6221,-0.635,-0.6354,-0.6359,0,0,0,0,0,0,0,0,0,0,0,0,0,-0.5983,-0.5896,-0.6062,-0.6099,-0.6103,-0.6176,-0.6178,-0.618,-0.6222,-0.6222,-0.6221,-0.622,-0.6348,-0.6354,-0.636,-0.6407,0,0,-0.6377,-0.638,0,0,0,0,0,0,0,0,-0.5978,-0.5989,-0.6092,-0.6097,-0.6102,-0.6184,-0.6166,-0.6256,-0.6222,-0.6177,-0.6221,-0.622,-0.6297,-0.6307,-0.633,-0.6413,-0.6419,-0.6378,-0.6381,-0.6384,-0.6385,0,0,0,0,0,0,0,-0.5971,-0.5984,-0.6108,-0.6094,-0.6099,-0.6114,-0.6126,-0.6183,-0.624,-0.6181,-0.6185,-0.6197,-0.6299,-0.6324,-0.6333,-0.6421,-0.6378,-0.6383,-0.6386,-0.6388,-0.6551,-0.6552,0,0,0,0,0,0,-0.5957,-0.5979,-0.6104,-0.6111,-0.6036,-0.6118,-0.6131,-0.6158,-0.6239,-0.625,-0.6197,-0.6199,-0.6315,-0.6327,-0.6338,-0.64,-0.6384,-0.6389,-0.6392,-0.655,-0.6551,-0.6552,0,0,0,0,0,0,-0.5953,-0.5968,-0.6099,-0.6046,-0.6064,-0.6121,-0.6151,-0.6161,-0.6186,-0.6251,-0.6262,-0.6211,-0.6315,-0.633,-0.6389,-0.6405,-0.6392,-0.6397,-0.6549,-0.6551,-0.6552,-0.6523,0,0,0,0,0,0,-0.5948,-0.5966,-0.5981,-0.6046,-0.6066,-0.6144,-0.6152,-0.6164,-0.6194,-0.6197,-0.6267,-0.6279,-0.6315,-0.638,-0.6395,-0.6413,-0.6401,-0.6548,-0.655,-0.6551,-0.6523,-0.6524,-0.6524,0,0,0,0,0,-0.5942,-0.5971,-0.5982,-0.5997,-0.6086,-0.6145,-0.6157,-0.6195,-0.6195,-0.6213,-0.6255,-0.6276,-0.6401,-0.6386,-0.6403,-0.6423,-0.6547,-0.6549,-0.6551,-0.6523,-0.6523,-0.6524,0,0,0,0,0,0,-0.5912,-0.5981,-0.5993,-0.6043,-0.6087,-0.6152,-0.6176,-0.6194,-0.6243,-0.6244,-0.6293,-0.6309,-0.6365,-0.64,-0.6382,-0.6474,-0.6476,-0.6481,-0.6449,-0.645,-0.645,-0.6441,-0.6406,0,0,0,0,0,-0.5911,-0.5948,-0.6008,-0.6047,-0.6068,-0.6118,-0.6145,-0.617,-0.622,-0.624,-0.6287,-0.6337,-0.6388,-0.6421,-0.6471,-0.6528,-0.6546,-0.6551,-0.6551,-0.6551,-0.6556,-0.6591,-0.6594,-0.6559,-0.6559,-0.6559,0,0,-0.591,-0.5952,-0.5973,-0.6042,-0.6079,-0.6121,-0.6134,-0.6178,-0.6211,-0.6249,-0.6306,-0.6342,-0.6402,-0.6461,-0.6489,-0.6492,-0.6569,-0.6553,-0.6553,-0.6558,-0.6593,-0.6596,-0.6599,-0.656,-0.656,-0.656,0,0,-0.5929,-0.5963,-0.6,-0.6036,-0.6091,-0.6124,-0.6132,-0.6194,-0.6218,-0.6276,-0.6305,-0.6348,-0.6433,-0.6475,-0.6508,-0.6543,-0.6566,-0.6559,-0.6561,-0.6595,-0.6598,-0.66,-0.6615,-0.6619,-0.6563,-0.6563,-0.6563,0,-0.5922,-0.5982,-0.6018,-0.6059,-0.609,-0.6122,-0.6161,-0.6197,-0.6267,-0.6289,-0.629,-0.6398,-0.6442,-0.6511,-0.6519,-0.6544,-0.6559,-0.6552,-0.6593,-0.6597,-0.66,-0.6614,-0.662,-0.6562,-0.6562,-0.6562,-0.6562,0,-0.5972,-0.6014,-0.6037,-0.6099,-0.6133,-0.6174,-0.6219,-0.6249,-0.6272,-0.6306,-0.6366,-0.6419,-0.648,-0.6499,-0.6523,-0.6573,-0.6573,-0.6583,-0.6586,-0.6601,-0.6616,-0.6622,-0.656,-0.6561,-0.6561,-0.6561,0,0,-0.5977,-0.6056,-0.6065,-0.6094,-0.6156,-0.6192,-0.6235,-0.6291,-0.6318,-0.6365,-0.6406,-0.6477,-0.6487,-0.6524,-0.6554,-0.6583,-0.661,-0.659,-0.6592,-0.6593,-0.667,-0.6662,-0.6668,-0.6624,-0.6625,-0.6626,-0.6665,0,-0.6006,-0.608,-0.6113,-0.6174,-0.6215,-0.6246,-0.6285,-0.633,-0.6363,-0.6406,-0.6445,-0.6495,-0.6503,-0.6526,-0.6556,-0.6599,-0.6626,-0.6597,-0.6666,-0.6668,-0.665,-0.6675,-0.6668,-0.6702,-0.6671,-0.6672,-0.6673,0,-0.6049,-0.6092,-0.6156,-0.6214,-0.6232,-0.6266,-0.6321,-0.6359,-0.6413,-0.6435,-0.6476,-0.6504,-0.6555,-0.6554,-0.6627,-0.6607,-0.6638,-0.6664,-0.6666,-0.6675,-0.6672,-0.6687,-0.6714,-0.6719,-0.6682,-0.6681,-0.6681,0,-0.6048,-0.6123,-0.617,-0.6194,-0.6263,-0.6286,-0.6316,-0.6368,-0.64,-0.645,-0.6472,-0.6528,-0.6559,-0.6604,-0.6649,-0.6643,-0.6719,-0.6721,-0.6743,-0.6742,-0.6759,-0.6757,-0.6792,-0.6776,-0.6775,-0.6775,-0.6775,0,-0.6077,-0.6116,-0.617,-0.62,-0.6245,-0.6285,-0.633,-0.6364,-0.6409,-0.645,-0.6481,-0.6519,-0.6574,-0.662,-0.6656,-0.6713,-0.6727,-0.675,-0.6759,-0.6747,-0.6744,-0.6769,-0.6768,-0.6777,-0.6776,-0.6776,-0.6776,0,-0.6084,-0.6122,-0.6176,-0.6235,-0.6251,-0.6282,-0.6335,-0.6368,-0.6402,-0.6452,-0.6467,-0.6522,-0.6578,-0.6626,-0.6701,-0.6725,-0.6785,-0.6795,-0.6765,-0.677,-0.679,-0.6788,-0.6843,-0.6854,-0.6828,-0.6828,-0.6828,0,-0.6101,-0.6131,-0.6192,-0.6218,-0.6247,-0.629,-0.6322,-0.6363,-0.6396,-0.6458,-0.6484,-0.6541,-0.6589,-0.6678,-0.6728,-0.6786,-0.6799,-0.6815,-0.6809,-0.6796,-0.6802,-0.68,-0.6804,-0.6816,-0.6816,-0.6816,-0.6816,0,-0.6128,-0.6144,-0.6186,-0.6235,-0.627,-0.6312,-0.6355,-0.6377,-0.6427,-0.6462,-0.6517,-0.6554,-0.6628,-0.6686,-0.675,-0.6787,-0.6811,-0.6816,-0.6825,-0.6815,-0.6796,-0.6808,-0.6767,-0.6816,-0.6816,-0.6816,-0.6816,-0.6816,-0.6141,-0.6169,-0.6216,-0.6263,-0.6298,-0.6337,-0.637,-0.6407,-0.6452,-0.6513,-0.6536,-0.6592,-0.6648,-0.6734,-0.6771,-0.6819,-0.6823,-0.6835,-0.6838,-0.6841,-0.684,-0.6787,-0.6831,-0.6831,-0.6831,-0.6831,-0.6831,0,-0.6171,-0.6202,-0.6244,-0.63,-0.6338,-0.6352,-0.64,-0.6432,-0.648,-0.6526,-0.6571,-0.6636,-0.6692,-0.6746,-0.6806,-0.6834,-0.6847,-0.6849,-0.6849,-0.6857,-0.6832,-0.6819,-0.6838,-0.6838,-0.6838,-0.6838,-0.6838,-0.6838,-0.6191,-0.6239,-0.6261,-0.6329,-0.6361,-0.6413,-0.644,-0.6478,-0.6515,-0.6584,-0.6629,-0.6661,-0.6713,-0.6776,-0.683,-0.6845,-0.6866,-0.6865,-0.6884,-0.686,-0.6859,-0.6857,-0.6846,-0.6869,-0.6869,-0.6905,-0.6905,-0.6905]},{"header":{"parameterUnit":"m.s-1","parameterCategory":1,"la1":30.2991,"la2":30.254,"lo1":-89.0895,"lo2":-89.0444,"dy":0.0017,"dx":0.0017,"nx":28,"ny":28,"refTime":"2025-07-24T09:00:00:Z","depth":0,"parameterNumber":3,"parameterNumberName":"V-component_of_WINDS"},"data":[0,0,0,0,0,0,0,0,0,0,0,0,0,0,0,0,0,0,0,0,0,0,0,0,0,0,0,0,0,0,0,0,0,0,0,0,0,0,0,0,0,0,0,0,0,0,0,0,0,0,0,0,0,0,0,0,0,0,5.2265,5.2266,0,5.2333,5.2334,5.2335,5.2215,5.2211,5.2207,5.2203,5.2273,5.2279,5.2284,0,0,0,0,0,0,0,0,0,0,0,0,0,5.2033,5.2038,5.2265,5.2266,5.2267,5.2333,5.2334,5.2335,5.2216,5.2211,5.2206,5.2202,5.2272,5.2278,5.2285,0,0,0,0,0,0,0,0,0,0,0,0,0,5.2121,5.2039,5.2265,5.2215,5.2212,5.2333,5.2334,5.2335,5.2217,5.2211,5.2205,5.2199,5.2269,5.2278,5.2286,5.2459,0,0,5.2312,5.2315,0,0,0,0,0,0,0,0,5.2116,5.2129,5.2222,5.2219,5.2215,5.226,5.2278,5.2377,5.2219,5.2215,5.2203,5.2196,5.2274,5.2281,5.2307,5.2462,5.2465,5.2312,5.2317,5.2321,5.2323,0,0,0,0,0,0,0,5.211,5.2126,5.2292,5.2223,5.2219,5.219,5.2196,5.2296,5.2277,5.2215,5.2206,5.2216,5.2271,5.23,5.2308,5.2466,5.2312,5.232,5.2325,5.2328,5.2768,5.2774,0,0,0,0,0,0,5.211,5.2122,5.229,5.2294,5.215,5.2199,5.2206,5.2251,5.2276,5.2274,5.2221,5.221,5.2288,5.2299,5.231,5.2514,5.2321,5.2329,5.2334,5.2761,5.2769,5.2776,0,0,0,0,0,0,5.2106,5.2126,5.2287,5.2206,5.2224,5.221,5.2262,5.2256,5.2285,5.2281,5.2277,5.2254,5.2284,5.2298,5.2423,5.2515,5.2333,5.234,5.2753,5.2764,5.2773,5.2924,0,0,0,0,0,0,5.2099,5.2125,5.219,5.2208,5.2229,5.2399,5.2268,5.2262,5.23,5.2286,5.2311,5.2309,5.228,5.2411,5.2432,5.2523,5.2347,5.2745,5.2758,5.277,5.2911,5.2938,5.2962,0,0,0,0,0,5.2091,5.223,5.2194,5.2215,5.231,5.2404,5.2416,5.238,5.2307,5.2373,5.2371,5.2308,5.2503,5.2425,5.2447,5.2543,5.2739,5.2754,5.2769,5.29,5.2933,5.2961,0,0,0,0,0,0,5.2222,5.2231,5.2191,5.234,5.2372,5.2384,5.2465,5.2416,5.247,5.2455,5.2408,5.2415,5.255,5.2559,5.2472,5.2712,5.2609,5.2629,5.2701,5.2732,5.2757,5.2751,5.2354,0,0,0,0,0,5.2269,5.2345,5.2348,5.2479,5.2497,5.2479,5.2519,5.2489,5.252,5.2533,5.254,5.2574,5.2642,5.2688,5.2751,5.2913,5.2917,5.299,5.3015,5.3036,5.3053,5.3141,5.3173,5.2825,5.2825,5.2825,0,0,5.2364,5.2379,5.2429,5.2506,5.2527,5.2607,5.2491,5.258,5.2639,5.2547,5.2664,5.2672,5.2706,5.285,5.2914,5.2862,5.3151,5.3055,5.3072,5.3077,5.3159,5.3192,5.3221,5.2835,5.2834,5.2832,0,0,5.2579,5.2599,5.2709,5.2734,5.2768,5.2756,5.2783,5.2803,5.2804,5.2922,5.2855,5.2925,5.3044,5.3072,5.3101,5.3331,5.3276,5.3353,5.3484,5.357,5.3597,5.3621,5.3703,5.3733,5.3371,5.3371,5.3372,0,5.2694,5.2811,5.2772,5.2867,5.2902,5.2824,5.2937,5.2963,5.3016,5.3043,5.2984,5.3134,5.3151,5.3301,5.3358,5.3385,5.3414,5.3349,5.3597,5.362,5.3642,5.3719,5.375,5.338,5.3379,5.3378,5.3378,0,5.295,5.3033,5.3119,5.3173,5.3219,5.3322,5.3299,5.3351,5.3318,5.3312,5.3435,5.3454,5.352,5.3554,5.3522,5.3701,5.3667,5.3604,5.3498,5.3685,5.3757,5.3786,5.3393,5.339,5.3387,5.3385,0,0,5.3246,5.328,5.3311,5.3336,5.337,5.3433,5.3534,5.3599,5.3644,5.3685,5.3768,5.3873,5.3815,5.3849,5.3821,5.3896,5.4078,5.3823,5.3824,5.3869,5.4275,5.4322,5.4356,5.4042,5.4048,5.4052,5.4272,0,5.3459,5.3631,5.36,5.3768,5.3845,5.3774,5.3861,5.3893,5.3891,5.3956,5.3955,5.4029,5.3947,5.3968,5.404,5.404,5.4158,5.4024,5.4119,5.4123,5.411,5.4394,5.4442,5.4649,5.43,5.4305,5.4308,0,5.3729,5.378,5.3956,5.398,5.4011,5.409,5.4148,5.4212,5.4247,5.424,5.428,5.4239,5.434,5.4236,5.4375,5.4285,5.4323,5.433,5.4337,5.4342,5.4225,5.4406,5.4714,5.4744,5.4352,5.4349,5.4346,0,5.3926,5.4039,5.4159,5.4183,5.4214,5.4271,5.4287,5.4316,5.4358,5.4409,5.4436,5.4499,5.4534,5.4584,5.4561,5.4487,5.4706,5.4599,5.4703,5.4704,5.475,5.4747,5.5067,5.4778,5.4777,5.4777,5.4776,0,5.4165,5.4275,5.4248,5.4322,5.4444,5.4409,5.4531,5.4538,5.4566,5.464,5.4584,5.4655,5.4621,5.4691,5.4675,5.4793,5.4809,5.4807,5.4801,5.4811,5.4811,5.4833,5.4818,5.4785,5.4783,5.4782,5.478,0,5.4404,5.439,5.4516,5.4537,5.4544,5.4633,5.4651,5.472,5.4716,5.4811,5.4832,5.4825,5.4904,5.4887,5.4975,5.4964,5.5112,5.5089,5.51,5.5094,5.5199,5.5189,5.5542,5.5587,5.5271,5.5274,5.5277,0,5.4556,5.4639,5.4669,5.4715,5.4735,5.481,5.4853,5.4824,5.4871,5.4918,5.4983,5.5057,5.5114,5.5245,5.5248,5.5316,5.5293,5.5412,5.5302,5.531,5.5293,5.5288,5.5296,5.5433,5.5437,5.544,5.5442,0,5.4828,5.4818,5.4881,5.4945,5.4997,5.5045,5.5087,5.5129,5.5103,5.5159,5.5239,5.5285,5.5375,5.5449,5.5512,5.5529,5.5483,5.5477,5.5505,5.5515,5.5517,5.5517,5.5158,5.5468,5.5466,5.5464,5.5462,5.5461,5.5027,5.5098,5.5131,5.5204,5.5234,5.5275,5.5342,5.5347,5.5413,5.5484,5.5463,5.5555,5.5591,5.567,5.5695,5.5768,5.5723,5.5763,5.5773,5.5783,5.5795,5.5508,5.5779,5.5779,5.5778,5.5777,5.5777,0,5.5295,5.5313,5.5382,5.5443,5.5502,5.5454,5.5499,5.5551,5.5633,5.567,5.5728,5.5822,5.5896,5.5906,5.5976,5.6032,5.6013,5.6052,5.6046,5.6051,5.5831,5.58,5.6066,5.6066,5.6066,5.6066,5.6066,5.6066,5.5441,5.5559,5.5554,5.5686,5.5704,5.5793,5.5823,5.5862,5.5891,5.5999,5.6059,5.6066,5.6093,5.6165,5.6231,5.6233,5.6261,5.6308,5.6301,5.6095,5.6066,5.6038,5.6009,5.6315,5.6315,5.6514,5.6516,5.6517]}]]